Simultaneous Nadir Overpasses (SNOs) Predictions

Prediction of SNOs between AURA and NPP Satellite Orbit:

Table of predicted SNOs for the next 14.0 days since TLE Epoch: 1/31/2020
Index Date (AURA) Time (AURA) Lat,Lon (AURA) SZA (AURA ) Date (NPP) Time (NPP) Lat,Lon (NPP) SZA (NPP ) Distance(km) Time Diff (sec)
1 02/02/2020 19:57:56 -79.68, -41.31 70.77 02/02/2020 19:57:49 -79.68, -41.34 70.76 0.82 7
2 02/02/2020 20:47:15 79.93, 128.24 108.85 02/02/2020 20:48:25 79.94, 128.40 108.77 3.20 70
3 02/05/2020 11:25:02 79.49, -94.45 108.76 02/05/2020 11:24:05 79.48, -94.59 108.83 3.05 57
4 02/05/2020 12:14:23 -79.72, 74.87 71.60 02/05/2020 12:14:43 -79.72, 74.80 71.60 1.29 20
5 02/08/2020 03:41:29 79.56, 21.94 107.85 02/08/2020 03:40:59 79.55, 21.80 107.90 3.05 30
6 02/08/2020 04:30:49 -79.83,-168.42 72.56 02/08/2020 04:31:36 -79.82,-168.49 72.59 1.41 47
7 02/10/2020 19:57:55 79.66, 138.59 106.86 02/10/2020 19:57:52 79.66, 138.46 106.89 2.73 3
8 02/10/2020 20:47:16 -79.89, -52.01 73.51 02/10/2020 20:48:30 -79.89, -52.07 73.55 1.14 74
9 02/13/2020 11:25:01 -79.56, 86.05 73.85 02/13/2020 11:24:07 -79.55, 86.05 73.81 0.18 54




NCC Satellite Simultaneous Nadir Overpasses (SNOs) Prediction Service
